Hourly Data Report for October 14, 2000

SHERBROOKE A
QUEBEC

45°26'00.000" N
71°41'00.000" W
241.40 m
7028124
71610
YSC

Download Data

Hourly Data (October 2000)
Hourly Data Report for October 14, 2000
TIME
LST
Temp Definition
°C
Dew Point Definition
°C
Rel Hum Definition
%
Precip. Amount Definition
mm

Wind Dir Definition
10's deg

Wind Spd Definition
km/h
Visibility Definition
km
Stn Press Definition
kPa
Hmdx Definition


Wind Chill Definition


Weather Definition


00:00 13.0 9.3 78   19 4 15.0 98.72      
01:00 13.6 9.6 77   21 6 15.0 98.65      
02:00 12.1 11.0 93     0 9.7 98.59     Rain
03:00 12.8 10.9 88   23 9 15.0 98.59     Rain
04:00 12.5 11.2 92   19 4 8.0 98.55     Rain
05:00 12.5 11.3 92   20 7 12.9 98.49     Rain
06:00 13.3 10.9 85   21 9 15.0 98.49      
07:00 13.7 10.6 82   23 7 24.1 98.49     Mostly Cloudy
08:00 15.3 9.8 70   21 9 24.1 98.45     Mostly Cloudy
09:00 17.2 9.8 62   22 20 24.1 98.42     Mostly Cloudy
10:00 18.0 8.8 55   22 19 24.1 98.36     Mostly Cloudy
11:00 18.5 9.2 55   21 11 24.1 98.32     Mostly Cloudy
12:00 18.1 9.9 59   22 17 24.1 98.22     Cloudy
13:00 18.7 9.6 55   24 17 24.1 98.16     Cloudy
14:00 19.6 10.4 55   23 7 24.1 98.06     Mostly Cloudy
15:00 20.4 10.5 53   22 11 24.1 97.99     Mostly Cloudy
16:00 20.2 10.0 52   22 13 24.1 97.92     Mostly Cloudy
17:00 20.2 10.5 54   23 15 15.0 97.89      
18:00 19.2 11.3 60   22 13 15.0 97.89     Rain
19:00 19.4 11.4 60   24 19 15.0 97.89     Rain
20:00 17.5 11.9 70   27 20 15.0 97.92     Rain
21:00 19.2 10.6 57   26 20 15.0 97.96      
22:00 19.2 10.6 57   26 26 15.0 97.96      
23:00 18.8 11.3 62   26 32 15.0 97.99      

Notes on Data Quality.

Legend

  • E = Estimated
  • M = Missing
  • NA = Not Available*
  • [empty] = Indicates an unobserved value
Date modified: